Date String (YYYY-MM-DD hh:mm:ss) UTC,Instrument flags,Ambient pressure (hPa),Sample flow (lpm),Bypass flow (lpm),Sample temperature (°C),Ambient temperature (°C),ASC tube jacket temperature (°C),LED temperature (°C),Box temperature (°C),Sample RH (%),Span deviation,Mass concentration (μg/m³),Mass concentration (μg/m³),Mass concentration (μg/m³)
DateTimeUTC,F1_M11,P_M11,Q1_M11,Q2_M11,T1_M11,T2_M11,T3_M11,T4_M11,T5_M11,U1_M11,ZSPAN_M11,X0_M11,X2_M11,X1_M11
2022-04-29 10:00:00,,0813.2,5.00,0.00,28.6,27.7,00.0,37.8,30.2,10.9,0002.3,0019.35,0008.07,0005.31
2022-04-29 10:01:00,,0813.3,4.99,0.00,28.6,27.7,00.0,37.8,30.2,10.8,0000.2,0019.74,0008.06,0005.33
2022-04-29 10:02:00,,0813.4,5.01,0.00,28.5,27.6,00.0,37.7,30.1,10.6,0000.0,0020.15,0008.07,0005.36
2022-04-29 10:03:00,,0813.5,4.99,0.00,28.4,27.6,00.0,37.7,30.1,10.6,0001.3,0020.26,0008.10,0005.36
2022-04-29 10:04:00,,0813.5,5.00,0.00,28.4,27.5,00.0,37.7,30.0,10.5,0005.4,0020.05,0008.03,0005.36
2022-04-29 10:05:00,,0813.4,5.00,0.00,28.4,27.5,00.0,37.6,30.0,10.6,0005.4,0019.65,0007.98,0005.37
2022-04-29 10:06:00,,0813.5,4.99,0.00,28.4,27.6,00.0,37.6,30.1,10.6,0005.3,0020.41,0008.04,0005.38
2022-04-29 10:07:00,,0813.4,5.01,0.00,28.4,27.6,00.0,37.6,30.1,10.7,0004.7,0021.10,0008.10,0005.39
2022-04-29 10:08:00,,0813.4,5.00,0.00,28.4,27.7,00.0,37.6,30.2,10.9,0004.6,0021.39,0008.11,0005.38
2022-04-29 10:09:00,,0813.4,4.99,0.00,28.5,27.7,00.0,37.6,30.2,11.2,0004.3,0021.04,0008.05,0005.38
2022-04-29 10:10:00,,0813.4,5.02,0.00,28.5,27.8,00.0,37.6,30.2,11.2,0004.3,0020.53,0007.92,0005.36
2022-04-29 10:11:00,,0813.5,4.98,0.00,28.4,27.7,00.0,37.6,30.2,11.3,0004.4,0019.90,0007.93,0005.36
2022-04-29 10:12:00,,0813.6,5.00,0.00,28.4,27.7,00.0,37.5,30.1,11.2,0003.9,0019.10,0007.97,0005.35
2022-04-29 10:13:00,,0813.7,5.00,0.00,28.4,27.7,00.0,37.5,30.1,11.0,0003.8,0018.80,0008.01,0005.34
2022-04-29 10:14:00,,0813.8,5.00,0.00,28.4,27.7,00.0,37.5,30.1,11.0,0004.1,0018.75,0007.99,0005.34
2022-04-29 10:15:00,,0813.5,5.01,0.00,28.4,27.7,00.0,37.5,30.1,11.2,0003.8,0018.72,0008.04,0005.35
2022-04-29 10:16:00,,0813.8,4.99,0.00,28.4,27.7,00.0,37.5,30.1,11.3,0004.0,0018.86,0008.02,0005.34
2022-04-29 10:17:00,,0813.6,5.01,0.00,28.4,27.7,00.0,37.5,30.1,11.0,0003.6,0018.14,0007.94,0005.32
2022-04-29 10:18:00,,0814.0,5.00,0.00,28.4,27.7,00.0,37.5,30.1,10.8,0003.6,0017.76,0007.94,0005.32
2022-04-29 10:19:00,,0813.8,5.00,0.00,28.3,27.6,00.0,37.4,30.0,10.7,0003.8,0017.34,0007.97,0005.32
2022-04-29 10:20:00,,0813.7,5.00,0.00,28.3,27.6,00.0,37.4,30.0,10.7,0003.5,0017.08,0008.00,0005.33
2022-04-29 10:21:00,,0813.8,5.00,0.00,28.3,27.6,00.0,37.4,30.0,10.6,0003.5,0016.73,0007.98,0005.36
2022-04-29 10:22:00,,0813.5,5.01,0.00,28.2,27.5,00.0,37.4,29.9,10.5,0003.1,0016.81,0007.98,0005.36
2022-04-29 10:23:00,,0813.5,5.00,0.00,28.2,27.5,00.0,37.4,29.9,10.6,0003.0,0016.60,0007.91,0005.36
2022-04-29 10:24:00,,0813.6,5.00,0.00,28.2,27.5,00.0,37.4,29.9,10.8,0002.7,0016.53,0007.86,0005.35
2022-04-29 10:25:00,,0813.5,4.99,0.00,28.2,27.6,00.0,37.4,29.9,10.7,0002.0,0016.98,0007.89,0005.35
2022-04-29 10:26:00,,0813.5,5.00,0.00,28.2,27.6,00.0,37.3,29.9,10.8,0001.9,0016.94,0007.88,0005.35
2022-04-29 10:27:00,,0813.5,4.99,0.00,28.2,27.5,00.0,37.3,29.9,10.9,0001.6,0017.08,0007.88,0005.35
2022-04-29 10:28:00,,0813.5,5.01,0.00,28.2,27.5,00.0,37.3,29.9,11.0,0001.7,0017.70,0007.88,0005.38
2022-04-29 10:29:00,,0813.5,4.99,0.00,28.2,27.5,00.0,37.3,29.9,11.1,0001.0,0018.17,0007.83,0005.36
2022-04-29 10:30:00,,0813.6,5.00,0.00,28.2,27.6,00.0,37.3,29.9,11.1,0000.9,0018.02,0007.77,0005.34
2022-04-29 10:31:00,,0813.8,5.00,0.00,28.2,27.6,00.0,37.3,30.0,11.1,0001.1,0018.33,0007.78,0005.34
2022-04-29 10:32:00,,0813.8,5.00,0.00,28.3,27.6,00.0,37.3,30.0,11.1,0001.1,0019.73,0007.87,0005.33
2022-04-29 10:33:00,,0813.8,5.00,0.00,28.2,27.4,00.0,37.3,30.0,11.2,0000.9,0020.01,0007.94,0005.33
2022-04-29 10:34:00,,0813.7,5.01,0.00,28.2,27.4,00.0,37.3,29.9,11.1,0000.8,0020.21,0008.01,0005.35
2022-04-29 10:35:00,,0813.7,4.98,0.00,28.1,27.4,00.0,37.2,29.8,11.3,0000.9,0019.89,0007.97,0005.35
2022-04-29 10:36:00,,0814.1,5.01,0.00,28.1,27.4,00.0,37.2,29.8,11.7,0001.4,0019.86,0007.99,0005.36
2022-04-29 10:37:00,,0814.2,4.99,0.00,28.1,27.4,00.0,37.2,29.8,11.8,0001.2,0019.98,0007.93,0005.36
2022-04-29 10:38:00,,0813.8,5.02,0.00,28.1,27.3,00.0,37.2,29.8,11.5,0000.4,0019.52,0007.93,0005.35
2022-04-29 10:39:00,,0813.9,4.99,0.00,28.1,27.3,00.0,37.2,29.8,11.5,0000.1,0018.76,0007.97,0005.35
2022-04-29 10:40:00,,0813.7,5.01,0.00,28.0,27.3,00.0,37.2,29.7,11.6,0001.0,0018.62,0007.98,0005.35
2022-04-29 10:41:00,,0813.7,4.99,0.00,28.0,27.3,00.0,37.2,29.7,11.6,0000.9,0020.22,0008.04,0005.36
2022-04-29 10:42:00,,0813.9,5.00,0.00,28.0,27.3,00.0,37.1,29.7,12.1,0001.3,0020.67,0008.10,0005.36
2022-04-29 10:43:00,,0814.2,5.00,0.00,28.0,27.3,00.0,37.1,29.7,12.0,0002.4,0019.74,0008.10,0005.36
2022-04-29 10:44:00,,0813.8,4.98,0.00,28.0,27.3,00.0,37.1,29.7,12.0,0003.5,0020.36,0008.07,0005.36
2022-04-29 10:45:00,,0813.8,5.01,0.00,28.0,27.2,00.0,37.1,29.7,12.0,0004.9,0020.99,0008.07,0005.34
2022-04-29 10:46:00,,0813.9,5.00,0.00,27.9,27.2,00.0,37.1,29.6,11.9,0004.8,0021.62,0008.15,0005.34
2022-04-29 10:47:00,,0814.3,4.99,0.00,27.9,27.2,00.0,37.0,29.6,12.1,0004.5,0022.41,0008.19,0005.35
2022-04-29 10:48:00,,0813.8,5.02,0.00,27.9,27.2,00.0,37.0,29.6,12.2,0004.4,0022.43,0008.22,0005.35
2022-04-29 10:49:00,,0813.7,4.99,0.00,27.9,27.2,00.0,37.0,29.6,12.1,0004.5,0023.16,0008.25,0005.36
2022-04-29 10:50:00,,0813.8,5.00,0.00,27.8,27.2,00.0,37.0,29.6,12.2,0004.7,0023.65,0008.26,0005.36
2022-04-29 10:51:00,,0813.8,4.99,0.00,27.8,27.2,00.0,37.0,29.6,12.2,0004.5,0023.72,0008.24,0005.37
2022-04-29 10:52:00,,0813.8,5.00,0.00,27.8,27.1,00.0,37.0,29.6,12.1,0003.9,0023.22,0008.28,0005.40
2022-04-29 10:53:00,,0813.8,5.00,0.00,27.8,27.0,00.0,36.9,29.6,11.7,0003.9,0022.41,0008.21,0005.40
2022-04-29 10:54:00,,0814.2,4.99,0.00,27.8,27.0,00.0,36.9,29.5,12.5,0003.5,0023.01,0008.19,0005.42
2022-04-29 10:55:00,,0813.9,5.02,0.00,27.8,27.0,00.0,36.9,29.5,12.9,0003.3,0023.25,0008.26,0005.42
2022-04-29 10:56:00,,0813.9,4.98,0.00,27.8,27.1,00.0,36.9,29.5,12.8,0002.7,0023.24,0008.33,0005.45
2022-04-29 10:57:00,,0813.7,5.01,0.00,27.8,27.1,00.0,36.9,29.5,12.9,0002.7,0022.92,0008.32,0005.46
2022-04-29 10:58:00,,0813.7,4.99,0.00,27.8,27.1,00.0,36.9,29.6,13.4,0001.8,0021.93,0008.29,0005.46
2022-04-29 10:59:00,,0813.8,5.01,0.00,27.8,27.1,00.0,36.9,29.5,13.7,0000.0,0022.11,0008.29,0005.48
